Theta_e
315 315 314 313 313 313 313 313 313 314 314 314 315 315 316 316 315 308 301 307 312 324 324 309 305 302 304 299 302 301 292 291 295 297 300 305 304 309 314 314 316 316 313 315 316
313 313 313 313 313 314 313 314 313 313 314 314 314 315 315 315 307 304 312 322 329 329 307 303 299 299 296 299 299 297 291 293 301 303 302 306 303 306 306 308 311 315 317 317 315
312 313 313 314 314 313 313 313 313 314 314 314 314 315 315 313 303 309 330 325 331 324 306 303 301 298 292 296 298 296 292 298 300 302 305 306 306 308 305 302 307 311 314 315 313
312 312 312 312 313 312 313 313 313 314 314 314 314 314 315 309 296 306 332 330 327 311 304 303 302 295 290 290 296 293 299 301 302 304 303 301 305 303 304 304 309 314 316 313 312
312 312 312 312 312 312 313 313 313 313 314 314 314 314 308 303 306 318 330 327 318 310 307 303 299 292 289 292 294 293 297 301 303 303 303 304 302 303 303 309 314 313 315 313 310
312 311 311 312 312 313 313 314 314 313 313 314 314 315 306 298 313 320 318 316 311 307 309 307 303 299 294 292 291 296 297 298 299 299 299 300 302 301 305 308 313 313 312 312 312
312 312 312 312 313 313 314 315 314 315 314 314 315 312 304 300 313 314 312 308 311 312 309 307 305 299 297 294 296 296 292 295 296 297 297 299 297 298 303 309 310 312 312 312 313
312 312 311 312 313 314 314 315 315 315 317 315 315 309 297 312 310 309 310 311 311 309 307 306 304 299 296 296 297 292 290 286 294 298 299 297 292 298 302 302 304 310 311 312 313
312 312 311 312 313 314 314 314 315 317 317 316 307 303 301 319 312 314 312 309 309 308 306 309 301 296 296 290 286 288 284 287 291 297 297 295 293 299 302 301 301 308 310 311 311
312 311 312 312 313 313 313 314 314 314 314 314 312 302 307 308 308 309 308 309 306 304 302 299 294 291 289 286 281 285 285 288 289 294 294 293 293 298 300 300 301 301 308 309 311
311 311 311 311 312 312 309 305 303 304 305 304 307 305 308 313 311 305 309 306 305 299 291 295 289 286 290 291 292 291 289 288 292 296 293 291 292 295 298 298 300 298 298 300 307
311 310 310 311 311 311 306 301 306 302 296 308 309 309 313 313 304 306 309 299 297 292 294 291 287 294 296 296 294 292 289 289 293 296 293 292 291 295 296 297 297 298 299 300 303
311 311 310 311 310 307 304 308 313 308 297 303 307 306 308 308 304 303 304 301 296 292 291 288 293 298 296 294 293 291 289 289 290 294 294 291 289 292 296 297 299 299 299 302 304
310 310 310 309 304 304 302 309 309 308 293 300 303 305 307 303 300 307 307 301 296 292 293 290 295 296 293 292 292 287 294 294 292 289 282 291 281 289 293 294 297 298 297 298 302
310 310 309 308 301 300 307 309 309 307 284 304 300 306 303 300 302 303 307 301 294 294 293 291 293 292 291 293 295 290 295 292 292 287 283 286 282 288 291 292 294 297 298 298 299
310 310 309 306 303 306 309 310 307 293 286 298 300 298 297 299 300 302 302 302 300 294 293 293 297 295 294 297 296 297 292 289 287 284 279 284 283 285 289 291 294 298 300 302 303
309 309 305 305 302 307 308 305 292 287 303 297 299 297 295 295 297 298 296 293 290 285 286 292 293 297 298 292 295 291 284 278 276 277 279 286 284 287 292 296 298 297 300 302 303
307 307 305 305 303 307 305 298 285 296 298 304 299 298 294 296 297 298 296 291 294 292 287 286 285 293 298 293 290 289 287 283 275 275 280 288 282 288 297 299 300 301 301 300 300
305 301 304 307 305 306 298 287 291 297 300 298 298 292 293 296 295 294 293 293 294 293 287 286 287 297 298 297 294 289 285 288 286 288 281 283 287 293 297 297 299 299 300 300 300
299 302 307 311 312 303 293 290 294 301 299 299 292 295 290 293 292 291 292 298 297 299 296 292 285 294 296 297 295 292 294 285 287 278 278 282 284 285 289 294 296 297 300 301 301
298 300 311 314 310 298 288 293 299 301 301 296 294 293 293 292 293 292 293 297 301 298 296 292 289 290 293 290 288 289 288 288 286 285 281 277 280 289 291 293 294 296 299 299 301
294 290 308 309 296 297 294 299 298 299 301 299 297 295 293 294 291 292 292 296 301 300 293 294 289 284 288 293 295 293 289 287 280 279 285 284 284 296 295 296 296 297 301 300 302
295 295 307 305 290 291 296 298 299 298 298 294 295 295 295 292 288 293 294 299 299 298 294 293 286 281 283 287 291 290 292 290 289 288 283 282 281 297 298 297 298 297 300 300 302
293 294 299 302 300 293 293 294 295 301 297 296 294 295 292 290 292 290 291 296 298 300 304 298 288 285 281 286 290 288 290 291 289 282 282 284 287 292 295 297 298 298 297 298 302
295 294 295 289 291 292 294 294 293 292 296 296 292 293 290 285 288 289 291 292 295 299 297 292 286 288 289 291 291 290 289 290 288 288 283 286 288 291 293 295 296 298 300 300 301
291 291 294 292 295 293 293 290 292 292 293 292 289 292 291 287 288 287 290 290 289 293 289 290 283 287 286 290 290 287 289 289 289 289 288 289 289 294 296 297 297 297 300 299 301
298 298 293 292 294 291 291 293 292 294 294 294 292 290 289 291 294 293 293 292 292 289 286 285 284 281 278 287 287 281 286 289 290 292 291 286 291 295 294 296 296 296 299 300 302
Wind_Speed
17 17 17 15 15 15 15 15 15 15 15 14 14 13 13 14 15 3 7 12 9 11 3 6 3 3 3 3 3 1 3 4 5 4 10 2 5 5 6 11 15 4 8 8 8
17 17 16 16 15 15 15 14 14 14 13 13 13 12 12 12 4 8 14 14 12 6 5 3 3 1 1 4 3 5 4 7 6 4 9 19 5 8 3 7 10 16 5 2 11
17 17 17 17 16 15 15 15 14 13 12 12 12 12 12 9 4 8 5 16 10 7 2 1 1 1 3 1 5 5 6 4 7 10 12 22 12 7 6 9 11 15 11 6 7
18 18 17 17 17 15 14 14 14 13 12 11 11 12 12 2 2 3 3 12 7 5 3 3 3 3 3 4 5 4 6 9 11 13 13 12 18 11 6 10 8 12 8 9 10
18 18 17 17 16 15 14 13 13 13 12 10 9 9 4 2 9 3 10 7 5 4 4 3 2 3 3 3 3 6 7 12 17 16 15 16 19 16 13 7 7 6 7 11 7
18 18 17 16 16 16 15 13 11 11 10 8 7 7 1 3 4 9 8 5 5 4 4 5 6 8 5 4 4 5 7 8 8 10 8 12 19 7 14 10 9 8 9 9 10
18 18 18 17 16 16 15 13 11 10 7 5 4 3 2 12 3 7 9 8 6 7 4 7 6 2 2 5 3 4 5 8 4 4 5 3 9 10 6 6 8 7 8 8 11
17 17 18 18 17 16 16 15 14 11 7 3 1 1 8 6 3 4 7 8 7 8 7 5 3 2 2 3 8 5 3 3 7 4 6 7 14 14 11 5 9 11 10 10 10
19 17 18 17 16 16 16 16 14 9 4 6 3 2 10 12 5 9 10 10 5 7 5 4 3 2 4 4 6 5 4 6 8 7 6 5 15 9 10 10 8 10 10 10 9
20 19 18 17 16 16 17 17 2 1 2 4 4 3 6 4 4 5 5 6 2 2 3 1 5 2 4 5 4 6 4 6 6 6 2 8 12 13 10 10 17 11 12 10 13
22 20 19 18 16 12 9 4 3 1 2 8 6 6 10 4 6 4 5 1 1 3 2 4 3 7 12 10 10 7 7 11 10 5 1 5 9 12 10 11 17 11 8 7 10
24 23 22 19 17 12 1 2 7 3 9 15 15 15 16 7 5 5 3 4 4 6 2 5 6 15 10 13 9 11 10 7 6 4 4 8 11 15 6 8 8 9 8 9 8
22 22 22 21 21 2 4 8 7 6 4 8 10 6 8 7 13 9 9 6 6 4 7 7 12 9 9 11 10 9 6 4 6 5 5 5 8 9 7 5 7 6 7 7 12
22 21 20 23 1 3 5 6 9 6 4 7 6 6 6 5 5 12 10 10 5 11 9 7 8 5 8 6 3 4 5 5 7 2 3 5 9 9 7 7 7 9 8 9 8
22 22 17 9 4 2 6 10 8 6 3 5 5 5 7 9 5 4 10 5 12 10 6 13 7 9 7 8 6 9 8 6 4 4 2 1 2 10 7 13 11 11 11 10 11
26 21 13 4 2 9 9 10 4 5 5 4 4 5 5 6 6 2 7 4 4 6 5 12 5 6 10 13 8 7 3 3 3 2 6 6 7 13 13 8 7 6 10 14 18
30 24 5 2 5 2 6 4 5 3 8 3 8 4 6 4 9 7 7 6 8 3 7 12 13 11 7 8 14 3 5 5 6 5 14 5 5 14 12 8 12 7 14 20 19
30 24 7 5 5 5 4 5 2 5 5 11 8 5 3 3 5 7 5 13 8 3 2 6 9 9 9 6 8 9 9 8 8 7 11 2 7 9 8 10 5 5 14 11 8
23 4 2 5 6 3 6 3 5 2 13 13 6 4 4 8 1 7 4 6 6 9 7 4 5 1 3 1 4 3 1 6 2 3 3 4 8 11 12 10 6 4 12 13 7
5 4 5 3 7 5 5 5 4 5 11 7 3 4 5 7 5 6 3 5 8 6 2 4 4 3 1 4 3 5 4 1 2 4 7 7 10 11 8 5 9 5 6 13 18
3 5 5 7 5 5 3 6 4 10 10 6 4 6 6 3 3 4 5 13 5 8 5 3 3 5 1 4 5 3 2 5 4 4 2 3 6 5 2 3 3 2 6 9 4
3 4 3 4 2 1 2 2 6 7 7 4 4 3 4 6 4 4 6 6 15 12 7 3 3 4 7 8 2 1 3 5 5 4 2 4 7 14 5 7 7 7 1 3 3
5 4 6 4 1 4 6 5 3 8 9 6 4 8 7 5 5 7 8 10 14 12 4 2 2 4 9 7 6 6 2 2 3 3 8 3 7 5 10 6 11 7 7 6 4
3 4 5 4 3 5 6 5 7 8 7 6 3 6 9 8 6 6 10 5 10 9 10 4 1 6 6 6 4 10 11 5 3 3 5 10 15 16 10 8 13 9 10 8 6
1 2 3 4 3 9 4 5 10 9 9 6 3 8 11 5 9 6 8 8 6 2 1 4 2 3 5 7 9 12 10 15 13 16 9 16 13 16 2 5 5 7 9 6 8
3 4 5 3 9 15 9 8 12 11 7 4 6 11 12 8 9 12 6 5 5 2 3 1 3 3 4 9 12 13 14 21 15 10 11 16 18 2 2 5 5 6 7 11 10
3 4 2 5 2 2 3 9 15 9 7 10 13 12 13 14 9 10 11 10 9 7 3 5 5 3 5 6 4 9 8 6 2 6 5 5 3 3 4 4 6 3 5 6 6
Wind_Direction
331 334 328 326 326 323 321 321 319 316 313 312 310 310 312 315 315 295 244 218 190 243 308 277 284 265 133 224 213 110 83 215 215 204 260 312 350 320 238 234 235 175 158 187 164
331 326 326 323 321 322 322 321 319 318 316 315 314 314 313 320 287 248 241 224 232 214 175 194 281 292 244 201 228 148 169 222 217 225 270 285 219 272 281 283 239 229 88 107 96
333 330 327 324 322 323 322 321 319 317 317 318 317 315 315 322 290 250 244 217 207 174 254 219 266 52 258 167 224 207 201 221 261 250 254 273 278 263 241 267 222 234 172 164 99
334 330 327 324 322 318 319 320 319 317 318 319 319 315 315 270 211 275 122 184 178 166 201 176 164 164 224 219 230 250 263 233 253 245 258 262 279 270 224 239 268 217 140 140 138
337 333 328 324 319 318 315 317 317 317 317 317 314 317 356 251 251 196 157 170 141 169 224 154 172 177 218 230 281 177 243 251 252 252 253 255 262 259 244 231 261 172 124 140 147
340 336 331 323 319 317 313 309 312 316 318 317 309 321 212 275 233 155 152 151 208 200 192 160 231 222 257 250 159 265 259 257 248 252 250 256 269 255 258 217 216 202 160 162 164
338 335 332 325 319 315 311 304 298 301 306 299 300 281 273 240 270 162 178 194 193 198 196 216 203 52 131 317 199 272 298 315 269 244 240 222 289 258 251 189 232 226 197 186 192
339 336 336 331 324 317 310 306 303 299 284 212 212 345 250 241 228 230 209 288 235 242 220 277 355 106 85 312 351 341 27 303 287 309 266 138 263 272 276 216 215 223 211 190 193
340 337 335 331 326 320 311 297 289 292 188 164 120 125 271 304 183 210 194 224 242 225 252 244 91 171 344 70 1 347 247 276 298 256 265 183 274 250 258 264 247 214 209 215 210
341 336 333 332 329 322 311 299 239 318 192 192 263 313 279 237 216 221 210 242 243 50 343 187 51 54 5 81 224 236 241 259 239 287 265 292 274 284 275 252 248 215 222 217 223
340 336 333 330 328 327 340 7 25 67 244 208 202 238 289 299 137 185 217 194 108 42 262 287 91 233 238 204 227 232 249 261 277 235 246 251 264 272 269 277 243 242 199 251 237
334 336 333 327 319 319 279 207 228 165 293 226 235 237 256 268 282 216 161 159 146 229 296 359 254 250 242 257 227 240 239 251 264 279 297 286 283 286 259 256 220 216 229 211 173
329 330 331 324 314 117 197 233 244 28 286 285 214 217 227 191 230 236 162 197 189 219 256 195 248 272 237 256 253 252 222 242 252 291 306 318 292 303 302 276 296 234 213 200 176
328 328 329 326 342 348 258 280 299 152 21 277 191 230 193 188 264 215 190 173 188 210 244 238 263 298 317 293 286 234 231 261 290 323 250 81 288 289 288 300 286 277 276 247 201
328 325 321 313 294 287 251 328 321 58 336 184 190 180 162 170 186 233 205 160 202 212 147 249 266 282 299 262 272 246 235 236 236 245 91 87 272 269 304 285 268 283 284 259 215
327 323 321 93 193 245 302 309 57 52 265 222 141 183 144 209 238 226 180 179 182 204 222 237 234 180 237 267 261 257 226 31 47 109 273 220 180 286 274 262 299 266 285 291 286
326 322 281 272 224 310 320 35 46 161 299 43 356 169 222 246 246 230 205 198 193 170 243 252 252 255 244 252 273 249 77 298 301 286 264 257 243 251 279 259 245 298 317 293 263
326 323 190 224 255 7 29 55 190 270 320 344 360 331 197 11 337 355 330 230 236 210 194 214 279 212 235 185 214 230 197 214 255 247 275 317 236 254 237 262 265 300 348 313 229
325 322 246 251 203 113 70 81 222 288 357 339 330 312 341 344 39 12 317 271 195 181 208 226 244 195 249 263 99 282 235 174 105 49 335 277 292 304 283 286 244 62 37 343 25
326 324 268 235 131 70 79 234 264 355 349 321 330 307 296 307 315 327 286 276 337 333 53 273 310 187 257 9 335 161 192 225 86 209 249 240 257 250 302 325 288 119 95 14 3
5 349 279 118 76 56 169 237 284 353 18 326 290 276 280 328 332 312 276 303 328 338 336 257 208 279 128 186 213 347 344 76 123 178 199 292 260 243 194 238 295 174 116 112 124
7 335 306 13 40 243 211 249 329 327 328 287 316 313 327 288 255 292 266 309 314 330 317 326 180 216 229 234 204 94 153 134 141 241 227 238 269 262 323 290 180 152 127 186 148
320 264 304 103 256 342 312 307 268 326 328 35 341 6 3 4 351 340 350 339 21 357 328 339 346 357 345 355 18 27 6 86 106 112 199 225 250 249 317 345 308 290 177 227 226
343 329 331 32 42 1 331 293 339 344 330 22 316 350 343 328 337 293 299 329 7 31 32 41 95 177 231 239 272 296 294 220 169 208 218 221 270 272 287 301 328 287 288 275 202
70 300 352 333 339 320 290 354 338 7 15 333 311 358 335 304 310 294 330 326 327 114 81 107 193 224 244 254 264 274 285 287 222 231 220 260 243 258 261 293 302 316 337 301 268
30 15 342 290 334 337 358 4 349 353 332 311 328 315 309 279 279 288 279 219 224 276 119 19 250 209 247 248 251 250 244 242 264 273 261 259 256 108 195 274 307 329 5 25 27
332 340 64 279 202 5 254 309 319 341 302 332 316 306 296 284 270 238 229 231 231 221 175 184 164 174 261 232 309 289 243 219 289 347 9 306 353 296 279 318 299 340 0 343 359